Volver al catálogo

STARLINK-36883

ActivoComunicacionesSSO
NORAD 67975·PAYLOAD·🇺🇸 United States

Lanzado Feb 25, 2026 desde Vandenberg Space Force Base

Loading…

Próximos Pases (próximas 24 horas)

TLE

ActualizadoSource: CelesTrak SupGP

Época: Sep 14, 2026, 22:56 UTC

1 67975C 26038Q   26257.95604167  .00047074  00000+0  14612-2 0  2577
2 67975  97.2844 266.4180 0001715  87.4203  15.7027 15.33417124    19

Sigue STARLINK-36883 en tiempo real con AllMySat

Download on the App Store